GW1549 Weather Reports


time (UTC)temp
C
wind
direction
speed
KPH
gust
KPH
rain 1hr
cm
rain 24hr
cm
rain mn
cm
humidity
%
barometer
mb
20260507053926 10 7 0.0 0.0 0.00 0.00 0.00 83 1009.1
20260507052712 10 11 0.0 0.0 0.00 0.00 0.00 83 1009.1
20260507052147 10 11 0.0 0.0 0.00 0.00 0.00 82 1009.1
20260507051524 10 9 0.0 0.0 0.00 0.00 0.00 78 1009.1
20260507050911 10 13 0.0 0.0 0.00 0.00 0.00 78 1009.1
20260507050342 10 14 0.0 0.0 0.00 0.00 0.00 81 1009.1
20260507045750 10 15 0.0 0.0 0.00 0.00 0.00 82 1009.1
20260507045142 10 14 0.0 0.0 0.00 0.00 0.00 82 1009.1
20260507044539 11 20 0.0 0.0 0.00 0.00 0.00 83 1009.1
20260507043954 11 12 0.0 0.0 0.00 0.00 0.00 82 1008.8
20260507041541 11 7 0.0 0.0 0.00 0.00 0.00 78 1008.8
20260507040932 11 12 0.0 0.0 0.00 0.00 0.00 77 1008.8
20260507040332 11 10 0.0 0.0 0.00 0.00 0.00 78 1008.8
20260507035713 11 7 0.0 0.0 0.00 0.00 1.37 76 1008.8
20260507035145 11 12 0.0 0.0 0.00 0.00 1.37 74 1009.1
20260507034518 11 358 0.0 0.0 0.00 0.00 1.37 74 1008.8
20260507033911 11 7 0.0 0.0 0.00 0.00 1.37 74 1008.8
20260507033343 11 9 0.0 0.0 0.00 0.00 1.37 75 1008.8
20260507032121 11 11 0.0 0.0 0.00 0.00 1.37 73 1009.1
20260507030950 11 4 0.0 0.0 0.00 0.00 1.37 76 1008.8
20260507030351 11 4 0.0 0.0 0.00 0.00 1.37 74 1008.8
20260507025726 11 13 0.0 0.0 0.00 0.00 1.37 75 1008.8
20260507024540 11 25 0.0 0.0 0.00 0.00 1.37 73 1008.8
20260507023911 12 9 0.0 0.0 0.00 0.00 1.37 72 1008.8
20260507023354 12 358 0.0 0.0 0.00 0.00 1.37 72 1008.8
20260507022710 12 4 0.0 0.0 0.00 0.00 1.37 71 1008.8
20260507022117 12 17 0.0 0.0 0.00 0.00 1.37 73 1008.8
20260507021541 12 14 0.0 0.0 0.00 0.00 1.37 72 1008.8
20260507020939 12 29 0.0 0.0 0.00 0.00 1.37 72 1008.8
20260507020318 12 16 0.0 0.0 0.00 0.00 1.37 73 1008.8
20260507015728 12 358 0.0 0.0 0.00 0.00 1.37 73 1008.4
20260507015145 12 352 0.0 0.0 0.00 0.00 1.37 75 1008.1
20260507014513 12 17 0.0 0.0 0.00 0.00 1.37 74 1008.1
20260507013930 12 12 0.0 0.0 0.00 0.00 1.37 73 1008.1
20260507013354 12 29 0.0 0.0 0.00 0.00 1.37 74 1007.7
20260507012144 12 46 0.0 0.0 0.00 0.00 1.37 74 1007.7
20260507011532 12 355 1.6 3.2 0.00 0.00 1.37 75 1007.7
20260507010953 12 356 0.0 0.0 0.00 0.00 1.37 78 1007.7
20260507010329 12 17 0.0 0.0 0.00 0.00 1.37 77 1007.4
20260507005135 13 8 0.0 0.0 0.00 0.00 1.37 74 1007.4
20260507004543 13 19 0.0 0.0 0.00 0.00 1.37 74 1007.1
20260507003344 13 17 0.0 0.0 0.00 0.00 1.37 72 1007.1
20260507002728 13 13 0.0 0.0 0.00 0.00 1.37 74 1007.1
20260507001548 13 18 0.0 0.0 0.00 0.00 1.37 69 1007.4
20260507000314 13 35 0.0 0.0 0.00 0.00 1.37 70 1006.7
20260506235728 13 2 0.0 0.0 0.00 0.00 1.37 68 1006.7
20260506235133 13 17 0.0 0.0 0.00 0.00 1.37 68 1006.7
20260506234523 14 14 0.0 0.0 0.00 0.00 1.37 69 1006.7
20260506233939 14 12 0.0 0.0 0.00 0.00 1.37 68 1006.7
20260506233351 14 10 0.0 0.0 0.00 0.00 1.37 66 1006.4
20260506232743 14 21 0.0 0.0 0.00 0.00 1.37 69 1006.4
20260506232149 14 0 0.0 0.0 0.00 0.00 1.37 66 1006.7
20260506231525 15 5 0.0 0.0 0.00 0.00 1.37 64 1006.4
20260506230932 15 9 0.0 0.0 0.00 0.00 1.37 65 1006.4
20260506230329 15 8 0.0 0.0 0.00 0.00 1.37 64 1006.4
20260506225711 15 190 3.2 4.8 0.00 0.00 1.37 65 1007.1
20260506225110 15 282 0.0 1.6 0.00 0.00 1.37 66 1006.7
20260506224517 15 37 0.0 1.6 0.00 0.00 1.37 69 1006.7
20260506223932 15 15 0.0 0.0 0.00 0.00 1.37 68 1006.7
20260506223327 15 353 0.0 1.6 0.00 0.00 1.37 66 1006.7
20260506222722 16 335 1.6 3.2 0.00 0.00 1.37 68 1006.7
20260506222144 16 355 0.0 0.0 0.00 0.00 1.37 69 1006.4
20260506221515 16 15 0.0 0.0 0.00 0.00 1.37 72 1006.4
20260506220917 16 323 0.0 0.0 0.00 0.00 1.37 69 1006.4
20260506220343 16 356 0.0 0.0 0.00 0.00 1.37 68 1006.4
20260506215738 16 1 0.0 0.0 0.00 0.00 1.37 67 1006.4
20260506215141 16 55 0.0 0.0 0.00 0.00 1.37 68 1006.7
20260506214549 16 323 3.2 3.2 0.00 0.00 1.37 67 1006.4
20260506213317 16 13 0.0 0.0 0.00 0.00 1.37 69 1006.0
20260506212713 16 239 1.6 3.2 0.00 0.00 1.37 71 1006.0
20260506212127 16 39 0.0 0.0 0.00 0.00 1.37 69 1006.4
20260506210929 16 331 0.0 0.0 0.00 0.00 1.37 70 1006.0
20260506210347 16 250 3.2 3.2 0.00 0.00 1.37 69 1006.0
20260506204531 16 331 0.0 0.0 0.00 0.00 1.37 72 1006.0
20260506203311 16 50 0.0 0.0 0.00 0.00 1.37 72 1006.4
20260506202713 16 340 0.0 0.0 0.00 0.00 1.37 73 1006.0
20260506201533 16 6 0.0 0.0 0.00 0.00 1.37 72 1006.4
20260506200314 16 15 0.0 0.0 0.00 0.00 1.37 73 1006.0
20260506195752 16 52 1.6 3.2 0.00 0.00 1.37 72 1006.0
20260506194536 15 251 0.0 0.0 0.00 0.00 1.37 74 1006.0
20260506193953 15 348 0.0 0.0 0.00 0.00 1.37 74 1006.0
20260506193353 15 203 3.2 3.2 0.00 0.00 1.37 75 1005.7
20260506192743 15 340 4.8 6.4 0.00 0.00 1.37 74 1006.0
20260506192132 16 268 1.6 3.2 0.00 0.00 1.37 73 1006.0
20260506191543 16 265 1.6 1.6 0.00 0.00 1.37 74 1005.7
20260506190913 16 13 0.0 0.0 0.00 0.00 1.37 75 1005.7
20260506190340 15 15 0.0 0.0 0.00 0.00 1.37 77 1006.0
20260506185719 15 359 0.0 0.0 0.00 0.00 1.37 76 1006.0
20260506184536 15 323 3.2 4.8 0.00 0.00 1.37 76 1006.0
20260506183920 15 65 1.6 3.2 0.00 0.00 1.37 77 1006.0
20260506183330 15 318 0.0 0.0 0.00 0.00 1.37 79 1006.0
20260506182741 15 8 0.0 0.0 0.00 0.00 1.37 78 1006.0
20260506181541 15 20 0.0 1.6 0.00 0.00 1.37 77 1006.0
20260506180936 15 297 1.6 3.2 0.00 0.00 1.37 77 1005.7
20260506180354 15 308 3.2 3.2 0.00 0.00 1.37 77 1005.7
20260506175748 15 324 0.0 0.0 0.00 0.00 1.37 78 1006.0
20260506175127 15 30 0.0 0.0 0.00 0.00 1.37 78 1006.4
20260506174531 15 345 0.0 0.0 0.00 0.00 1.37 78 1006.0
20260506173943 15 42 3.2 4.8 0.00 0.00 1.37 79 1006.0
20260506173318 15 307 4.8 9.7 0.00 0.00 1.37 77 1006.0
20260506172712 15 307 3.2 4.8 0.00 0.00 1.37 77 1006.0
20260506172141 15 159 0.0 1.6 0.00 0.00 1.37 80 1006.0
20260506170953 14 83 0.0 1.6 0.00 0.00 1.37 80 1006.4
20260506170310 13 285 0.0 0.0 0.00 0.00 1.37 81 1006.4
20260506163946 12 70 1.6 1.6 0.00 0.00 1.37 87 1006.0
20260506163334 12 340 0.0 1.6 0.00 0.00 1.37 90 1006.4
20260506162749 12 288 1.6 3.2 0.00 0.00 1.37 92 1006.0
20260506162115 12 26 0.0 0.0 0.00 0.00 1.37 96 1006.0
20260506161546 11 258 1.6 3.2 0.00 0.00 1.37 98 1006.4
20260506160934 11 10 0.0 1.6 0.00 0.00 1.37 99 1006.7
20260506160351 11 44 3.2 4.8 0.00 0.00 1.37 99 1006.7
20260506155712 11 25 0.0 1.6 0.00 0.00 1.37 99 1006.4
20260506155128 11 17 0.0 0.0 0.00 0.00 1.37 99 1006.4
20260506154542 10 301 0.0 0.0 0.00 0.00 1.37 99 1006.0
20260506153930 10 342 0.0 0.0 0.00 0.00 1.37 99 1006.4
20260506153334 10 78 0.0 0.0 0.00 0.00 1.37 99 1005.7
20260506152733 10 0 0.0 0.0 0.00 0.00 1.37 99 1006.0
20260506151533 10 359 1.6 3.2 0.00 0.00 1.37 99 1006.0
20260506150933 10 52 0.0 0.0 0.00 0.00 1.37 99 1006.0
20260506150311 10 13 0.0 0.0 0.00 0.00 1.37 99 1005.4
20260506145750 10 46 0.0 0.0 0.00 0.00 1.37 99 1005.4
20260506145133 10 50 0.0 0.0 0.00 0.00 1.37 99 1005.4
20260506144538 10 332 3.2 4.8 0.00 0.00 1.37 99 1005.4
20260506143929 10 18 0.0 0.0 0.00 0.00 1.37 99 1005.4
20260506143317 10 297 0.0 1.6 0.00 0.00 1.37 99 1005.4
20260506142716 10 12 0.0 0.0 0.00 0.00 1.37 99 1005.4
20260506142117 10 25 0.0 0.0 0.00 0.00 1.37 99 1005.0
20260506141523 10 33 0.0 0.0 0.00 0.00 1.37 99 1005.0
20260506140935 10 7 0.0 0.0 0.00 0.00 1.37 99 1004.7
20260506140343 10 354 0.0 0.0 0.00 0.00 1.37 99 1004.7
20260506135734 10 19 0.0 0.0 0.00 0.00 1.37 99 1004.7
20260506135139 11 11 0.0 0.0 0.00 0.00 1.37 99 1004.7
20260506134512 11 10 0.0 0.0 0.00 0.00 1.37 99 1004.7
20260506133920 11 20 0.0 0.0 0.00 0.00 1.37 99 1004.4
20260506133350 11 40 0.0 0.0 0.00 0.00 1.37 99 1004.4
20260506132744 11 356 0.0 0.0 0.00 0.00 1.35 99 1004.0
20260506132120 11 358 3.2 4.8 0.00 0.00 1.35 99 1003.7
20260506131514 11 340 1.6 3.2 0.00 0.00 1.32 99 1003.7
20260506130920 11 337 0.0 0.0 0.00 0.00 1.32 99 1003.7
20260506125727 12 333 0.0 0.0 0.00 0.00 1.32 99 1003.3
20260506125146 12 286 0.0 0.0 0.00 0.00 1.32 99 1003.0
20260506124511 12 250 1.6 9.7 0.00 0.00 1.32 99 1003.0
20260506123932 12 296 3.2 4.8 0.00 0.00 1.32 99 1002.7
20260506123320 12 25 0.0 0.0 0.00 0.00 1.32 99 1002.7
20260506122715 12 6 0.0 0.0 0.00 0.00 1.32 99 1002.7
20260506122149 13 285 1.6 3.2 0.00 0.00 1.32 99 1002.7
20260506121518 13 57 0.0 0.0 0.00 0.00 1.32 99 1002.3
20260506120310 13 332 0.0 0.0 0.00 0.00 1.32 99 1002.7
20260506115715 14 332 0.0 0.0 0.00 0.00 1.32 99 1002.0
20260506115122 14 209 0.0 0.0 0.00 0.00 1.32 99 1002.0
20260506114533 13 307 0.0 0.0 0.00 0.00 1.32 99 1002.0
20260506113948 13 76 0.0 0.0 0.00 0.00 1.32 99 1001.6
20260506112733 13 350 0.0 0.0 0.00 0.00 1.32 99 1001.3
20260506111515 13 343 0.0 0.0 0.00 0.00 1.32 99 1001.3
20260506110913 13 232 0.0 1.6 0.00 0.00 1.32 99 1001.3
20260506105711 13 227 1.6 1.6 0.00 0.00 1.30 99 1001.3
20260506105146 13 163 0.0 0.0 0.00 0.00 1.30 99 1001.0
20260506103921 13 211 1.6 3.2 0.00 0.00 1.30 99 1001.3
20260506103351 13 63 1.6 1.6 0.00 0.00 1.30 99 1001.0
20260506102708 13 307 1.6 1.6 0.00 0.00 1.27 99 1001.0
20260506102109 13 223 3.2 4.8 0.00 0.00 1.27 99 1000.6
20260506100950 13 222 3.2 3.2 0.00 0.00 1.27 99 1001.3
20260506095711 13 204 3.2 3.2 0.00 0.00 1.24 99 1001.3
20260506095149 13 203 3.2 3.2 0.00 0.00 1.24 99 1001.3
20260506094538 13 260 0.0 0.0 0.00 0.00 1.22 99 1001.3
20260506093321 13 332 0.0 0.0 0.00 0.00 1.19 99 1001.3
20260506092747 13 359 0.0 0.0 0.00 0.00 1.19 99 1001.0
20260506092113 13 78 0.0 0.0 0.00 0.00 1.17 99 1001.3
20260506090323 13 15 0.0 0.0 0.00 0.00 1.07 99 1001.3
20260506085736 13 17 0.0 0.0 0.00 0.00 1.04 99 1001.3
20260506085114 13 12 0.0 0.0 0.00 0.00 1.04 99 1001.3
20260506083926 13 7 0.0 0.0 0.00 0.00 0.99 99 1001.3
20260506083337 13 5 0.0 0.0 0.00 0.00 0.99 99 1001.3
20260506082737 13 6 0.0 0.0 0.00 0.00 0.97 99 1001.3
20260506082142 13 335 1.6 1.6 0.00 0.00 0.97 99 1001.0
20260506081514 13 349 0.0 0.0 0.00 0.00 0.97 98 1001.0
20260506080930 13 33 0.0 0.0 0.00 0.00 0.94 98 1001.0
20260506080318 13 35 0.0 0.0 0.00 0.00 0.91 98 1001.0
20260506073309 14 22 0.0 0.0 0.00 0.00 0.76 97 1001.0
20260506072709 14 7 0.0 0.0 0.00 0.00 0.71 97 1001.3
20260506072143 14 7 0.0 0.0 0.00 0.00 0.61 97 1001.3
20260506071550 14 339 0.0 0.0 0.00 0.00 0.56 96 1001.3
20260506070907 14 27 0.0 0.0 0.00 0.00 0.56 96 1001.6
20260506070330 14 27 0.0 0.0 0.00 0.00 0.53 95 1001.3
20260506062127 15 200 4.8 4.8 0.00 0.00 0.10 90 1001.6
20260506061510 15 219 3.2 3.2 0.00 0.00 0.10 90 1001.6
20260506060342 15 318 0.0 0.0 0.00 0.00 0.03 89 1001.3